Overview Statistics Trail Chart Weather Telemetry Raw packets
 

This is the latest recevied weather packets stored in our database for station/object KO6LQK. If no packets are shown the sender has not sent any weather packets the latest 10 day(s).

<< 16 17 18 19 20 21 22 >>
Time Temp. Humidity Pressure Rain* Wind** Luminosity Snow
1788327750 17.78° C 31% 1022.6 hPa 0 mm - 0 W/m² -
1788327446 17.78° C 31% 1023 hPa 0 mm - 0 W/m² -
1788327145 17.78° C 30% 1022.6 hPa 0 mm - 0 W/m² -
1788326845 17.78° C 29% 1022.7 hPa 0 mm - 0 W/m² -
1788326540 18.33° C 27% 1022.6 hPa 0 mm - 0 W/m² -
1788326240 18.33° C 26% 1022.6 hPa 0 mm - 0 W/m² -
1788325934 18.89° C 25% 1022.7 hPa 0 mm - 0 W/m² -
1788325629 19.44° C 24% 1022.4 hPa 0 mm - 0 W/m² -
1788325324 19.44° C 23% 1022.4 hPa 0 mm - 0 W/m² -
1788325024 19.44° C 23% 1022.3 hPa 0 mm - 0 W/m² -
1788324721 19.44° C 22% 1022.3 hPa 0 mm - 0 W/m² -
1788324415 19.44° C 22% 1022.4 hPa 0 mm - 0 W/m² -
1788324112 19.44° C 22% 1022.4 hPa 0 mm - 0 W/m² -
1788323806 20° C 22% 1022.3 hPa 0 mm - 0 W/m² -
1788323502 20° C 21% 1022.2 hPa 0 mm - 0 W/m² -
1788323201 20.56° C 20% 1022 hPa 0 mm - 0 W/m² -
1788322897 20.56° C 21% 1022.1 hPa 0 mm - 0 W/m² -
1788322596 20.56° C 20% 1022.1 hPa 0 mm - 0 W/m² -
1788322291 20.56° C 20% 1022 hPa 0 mm - 0 W/m² -
1788321990 20.56° C 20% 1022 hPa 0 mm - 0 W/m² -
1788321686 20.56° C 19% 1021.8 hPa 0 mm - 0 W/m² -
1788321384 20.56° C 19% 1021.8 hPa 0 mm - 0 W/m² -
1788321080 20.56° C 20% 1021.6 hPa 0 mm - 0 W/m² -
1788320779 21.67° C 19% 1021.6 hPa 0 mm - 0 W/m² -
1788320478 21.67° C 18% 1021.4 hPa 0 mm - 0 W/m² -

* Rain latest hour (hover to see other rain measurements)
** Current wind speed in m/s (hover to see current wind gust speed)